Regional Weather Roundup
Issued by NWS

Home | Current Version | Previous Version | Text Only | Print | Product List | Glossary On
Versions: 1 2 3 4 5 6 7 8 9 10 11 12 13 14 15 16 17 18 19 20 21 22 23 24 25 26 27 28 29 30 31 32 33 34 35 36 37 38 39 40 41 42 43 44 45 46 47 48 49 50
000
ASUS43 KIND 291409
RWRIN

WEATHER ROUNDUP FOR INDIANA
NATIONAL WEATHER SERVICE INDIANAPOLIS IN
1000 AM EDT FRI APR 29 2016

NOTE: "FAIR" INDICATES FEW OR NO CLOUDS BELOW 12,000 FEET WITH NO
SIGNIFICANT WEATHER AND/OR OBSTRUCTIONS TO VISIBILITY.

* - STATION DOES NOT REPORT WEATHER SUCH AS PRECIPITATION OR FOG.

+ - STATION NOT QUALITY CONTROLLED BY THE NATIONAL WEATHER SERVICE.
    USE DATA WITH CAUTION...ESPECIALLY DEWPOINT AND RELATIVE
    HUMIDITY OBSERVATIONS.

INZ001>003-010>013-019-020-291500-
NORTHWEST INDIANA

CITY           SKY/WX    TMP DP  RH WIND       PRES   REMARKS
GARY /AIRPORT/ CLOUDY    45  45 100 N14       30.07F FOG
KNOX *+        CLOUDY    45  43  93 NW8       30.04F
LA PORTE +     CLOUDY    45  45 100 NW13      30.05F FOG
MICHIGAN CITY+ FOG       41  41 100 NW9       30.06S VSB 1/2
MONTICELLO +   CLOUDY    50  45  82 N8        30.04R HAZE
RENSSELAER +   CLOUDY    48  46  93 NW6       30.06R FOG
VALPARAISO     CLOUDY    44  42  93 N7        30.04F

$$

LMZ046-743>745-291500-
SOUTHERN LAKE MICHIGAN

STATION/POSITION TIME  TEMP    WIND        PRES    WAVE
                       AIR SEA DIR/SP/G            HT
                 (UTC) (F)     (DEG/KT/KT) (MB)    (FT)
BURNS HARBOR     1300   42     330/ 14/ 19 1018.6S
MICHIGAN CITY    1300   41     270/ 13/ 14   N/A

$$

INZ004-005-014>016-021>024-291500-
NORTH CENTRAL INDIANA

CITY           SKY/WX    TMP DP  RH WIND       PRES   REMARKS
ELKHART        CLOUDY    48  45  87 CALM      30.04F
GOSHEN         CLOUDY    46  42  86 E3        30.04S
LOGANSPORT +   CLOUDY    50  46  87 NW7       30.04R FOG
PERU/GRISSOM   CLOUDY    51  50  96 NW12      30.01F FOG
ROCHESTER +    CLOUDY    50  48  93 N7        30.03F FOG
SOUTH BEND     CLOUDY    46  43  89 NW8       30.03F
WARSAW +       CLOUDY    45  43  93 NE3       30.03F

$$

INZ006>009-017-018-025>027-291500-
NORTHEAST INDIANA

CITY           SKY/WX    TMP DP  RH WIND       PRES   REMARKS
ANGOLA *+      CLOUDY    45  32  61 CALM      30.04S
AUBURN +       CLOUDY    45  37  76 CALM      30.05S
FORT WAYNE     LGT RAIN  45  42  89 NE3       30.03F FOG
HUNTINGTON +   CLOUDY   N/A N/A N/A NE3       30.02F

$$

INZ028-029-035-036-043>045-051>053-291500-
WEST CENTRAL INDIANA

CITY           SKY/WX    TMP DP  RH WIND       PRES   REMARKS
CRAWFORDSVL +  CLOUDY    49  49 100 NW9       30.06R FOG
GREENCASTLE +  MOSUNNY   55  50  82 N9        30.05R
LAFAYETTE      CLOUDY    51  47  86 NW10      30.05R FOG
TERRE HAUTE    MOSUNNY   59  49  69 N5        30.05R

$$

INZ030>032-037>040-046>048-054>057-064-065-291500-
CENTRAL INDIANA

CITY           SKY/WX    TMP DP  RH WIND       PRES   REMARKS
ANDERSON       PTSUNNY   55  50  82 NW10      30.04S FOG
CP ATTERBURY + SUNNY     59  48  67 N8        30.05R
COLUMBUS       SUNNY     55  52  88 NW8       30.05R
FISHERS *+     CLOUDY    55  50  82 NW8       30.03S
FRANKFORT +      N/A     51  50  97 N5        30.06R FOG
GREENWOOD *+   MOSUNNY   57  48  72 NW7       30.04R
INDIANAPOLIS   PTSUNNY   56  48  74 NW12      30.03R
-EAGLE CREEK   PTSUNNY   55  48  77 NW10      30.03R
KOKOMO *+      CLOUDY    52  46  82 NW12      30.02S
MARION +       CLOUDY    49  47  90 CALM      30.02F FOG
SHELBYVILLE    MOSUNNY   60  50  69 NW9       30.02S
ZIONSVILLE +   PTSUNNY   53  48  84 NW8       30.04R HAZE

$$

INZ033-034-041-042-049-050-058-059-291500-
EAST CENTRAL INDIANA

CITY           SKY/WX    TMP DP  RH WIND       PRES   REMARKS
MUNCIE         CLOUDY    53  47  79 N6        30.02F HAZE

$$

INZ060-061-067>069-081>083-085>088-291500-
SOUTHWEST INDIANA

CITY           SKY/WX    TMP DP  RH WIND       PRES   REMARKS
EVANSVILLE     SUNNY     62  49  62 CALM      30.07R
HUNTINGBURG *+ CLOUDY    59  48  67 NE3       30.06R
WASHINGTON +   SUNNY     59  52  77 CALM      30.06R

$$

INZ062-063-066-070>080-084-089>092-291500-
SOUTH CENTRAL AND SOUTHEAST INDIANA

CITY           SKY/WX    TMP DP  RH WIND       PRES   REMARKS
BEDFORD +      CLOUDY    59  54  82 NW3       30.05R
BLOOMINGTON    MOSUNNY   59  47  64 VRB7      30.05R
MADISON *+     SUNNY     61  45  55 NW5       30.06R
NORTH VERNON + SUNNY     59  55  88 CALM      30.05R
SEYMOUR +      SUNNY     61  48  63 NW3       30.04R

$$




USA.gov is the U.S. government's official web portal to all federal, state and local government web resources and services.